Time,TemperatureF,DewpointF,PressureIn,WindDirection,WindDirectionDegrees,WindSpeedMPH,WindSpeedGustMPH,Humidity,HourlyPrecipIn,Conditions,Clouds,dailyrainin,SoftwareType,DateUTC
2013-04-04 00:02:00,33.2,15.0,30.29,ENE,70,1.0,4.0,47,0.00,,,0.00,weatherlink.com 1.10,2013-04-04 04:02:00,
2013-04-04 00:17:00,33.1,14.0,30.30,ESE,119,1.0,5.0,46,0.00,,,0.00,weatherlink.com 1.10,2013-04-04 04:17:00,
2013-04-04 00:32:00,32.8,14.0,30.30,ESE,103,0.0,2.0,47,0.00,,,0.00,weatherlink.com 1.10,2013-04-04 04:32:00,
2013-04-04 00:47:00,32.9,14.0,30.30,NNE,27,0.0,6.0,46,0.00,,,0.00,weatherlink.com 1.10,2013-04-04 04:47:00,
2013-04-04 01:02:00,32.9,15.0,30.29,WSW,253,0.0,3.0,47,0.00,,,0.00,weatherlink.com 1.10,2013-04-04 05:02:00,
2013-04-04 01:17:00,32.7,15.0,30.29,South,190,0.0,3.0,49,0.00,,,0.00,weatherlink.com 1.10,2013-04-04 05:17:00,
2013-04-04 01:32:00,32.5,16.0,30.27,West,273,0.0,5.0,50,0.00,,,0.00,weatherlink.com 1.10,2013-04-04 05:32:00,
2013-04-04 01:47:00,32.3,15.0,30.26,SSW,193,0.0,4.0,50,0.00,,,0.00,weatherlink.com 1.10,2013-04-04 05:47:00,
2013-04-04 02:03:00,32.3,16.0,30.26,North,1,0.0,5.0,51,0.00,,,0.00,weatherlink.com 1.10,2013-04-04 06:03:00,
2013-04-04 02:18:00,32.3,16.0,30.26,East,84,0.0,1.0,51,0.00,,,0.00,weatherlink.com 1.10,2013-04-04 06:18:00,
2013-04-04 02:33:00,31.2,16.0,30.26,East,83,0.0,0.0,54,0.00,,,0.00,weatherlink.com 1.10,2013-04-04 06:33:00,
2013-04-04 02:48:00,29.9,16.0,30.27,East,88,0.0,0.0,57,0.00,,,0.00,weatherlink.com 1.10,2013-04-04 06:48:00,
2013-04-04 03:03:00,29.3,17.0,30.27,East,89,0.0,0.0,60,0.00,,,0.00,weatherlink.com 1.10,2013-04-04 07:03:00,
2013-04-04 03:18:00,28.1,17.0,30.27,East,89,0.0,0.0,63,0.00,,,0.00,weatherlink.com 1.10,2013-04-04 07:18:00,
2013-04-04 03:33:00,27.0,17.0,30.27,East,89,0.0,0.0,66,0.00,,,0.00,weatherlink.com 1.10,2013-04-04 07:33:00,
2013-04-04 03:48:00,26.6,17.0,30.28,SW,235,0.0,0.0,68,0.00,,,0.00,weatherlink.com 1.10,2013-04-04 07:48:00,
2013-04-04 04:03:00,26.1,18.0,30.29,SW,235,0.0,0.0,70,0.00,,,0.00,weatherlink.com 1.10,2013-04-04 08:03:00,
2013-04-04 04:18:00,25.8,18.0,30.30,SW,235,0.0,0.0,71,0.00,,,0.00,weatherlink.com 1.10,2013-04-04 08:18:00,
2013-04-04 04:33:00,25.1,18.0,30.30,SW,235,0.0,0.0,74,0.00,,,0.00,weatherlink.com 1.10,2013-04-04 08:33:00,
2013-04-04 04:48:00,24.7,18.0,30.31,SW,235,0.0,0.0,76,0.00,,,0.00,weatherlink.com 1.10,2013-04-04 08:48:00,
2013-04-04 05:03:00,24.6,18.0,30.31,SW,235,0.0,0.0,76,0.00,,,0.00,weatherlink.com 1.10,2013-04-04 09:03:00,
2013-04-04 05:18:00,24.6,18.0,30.31,SSW,195,0.0,0.0,75,0.00,,,0.00,weatherlink.com 1.10,2013-04-04 09:18:00,
2013-04-04 05:33:00,24.2,18.0,30.31,SSW,195,0.0,0.0,77,0.00,,,0.00,weatherlink.com 1.10,2013-04-04 09:33:00,
2013-04-04 05:48:00,23.6,18.0,30.32,SSW,196,0.0,0.0,78,0.00,,,0.00,weatherlink.com 1.10,2013-04-04 09:48:00,
2013-04-04 06:18:00,23.0,18.0,30.34,SSW,196,0.0,1.0,81,0.00,,,0.00,weatherlink.com 1.10,2013-04-04 10:18:00,
2013-04-04 06:33:00,23.0,18.0,30.34,SSW,195,0.0,0.0,81,0.00,,,0.00,weatherlink.com 1.10,2013-04-04 10:33:00,
2013-04-04 06:48:00,22.8,18.0,30.36,SSW,195,0.0,0.0,82,0.00,,,0.00,weatherlink.com 1.10,2013-04-04 10:48:00,
2013-04-04 07:18:00,22.7,18.0,30.37,SSW,195,0.0,0.0,83,0.00,,,0.00,weatherlink.com 1.10,2013-04-04 11:18:00,
2013-04-04 07:49:00,24.5,20.0,30.37,SSW,195,0.0,0.0,82,0.00,,,0.00,weatherlink.com 1.10,2013-04-04 11:49:00,
2013-04-04 08:03:00,27.1,20.0,30.37,SSW,195,0.0,1.0,73,0.00,,,0.00,weatherlink.com 1.10,2013-04-04 12:03:00,
2013-04-04 08:34:00,31.6,20.0,30.36,SW,218,0.0,1.0,63,0.00,,,0.00,weatherlink.com 1.10,2013-04-04 12:34:00,
2013-04-04 08:49:00,33.1,20.0,30.36,SE,141,0.0,1.0,59,0.00,,,0.00,weatherlink.com 1.10,2013-04-04 12:49:00,
2013-04-04 09:04:00,34.1,20.0,30.35,SW,233,0.0,1.0,57,0.00,,,0.00,weatherlink.com 1.10,2013-04-04 13:04:00,
2013-04-04 09:34:00,37.3,21.0,30.34,ESE,122,0.0,3.0,51,0.00,,,0.00,weatherlink.com 1.10,2013-04-04 13:34:00,
2013-04-04 09:49:00,39.2,20.0,30.34,SW,219,0.0,3.0,47,0.00,,,0.00,weatherlink.com 1.10,2013-04-04 13:49:00,
2013-04-04 10:19:00,41.8,21.0,30.33,ENE,72,0.0,3.0,43,0.00,,,0.00,weatherlink.com 1.10,2013-04-04 14:19:00,
2013-04-04 10:49:00,43.1,20.0,30.32,East,95,0.0,4.0,40,0.00,,,0.00,weatherlink.com 1.10,2013-04-04 14:49:00,
2013-04-04 11:04:00,44.1,20.0,30.31,WSW,241,0.0,4.0,39,0.00,,,0.00,weatherlink.com 1.10,2013-04-04 15:04:00,
2013-04-04 11:19:00,44.7,20.0,30.30,West,259,1.0,4.0,37,0.00,,,0.00,weatherlink.com 1.10,2013-04-04 15:19:00,
2013-04-04 11:34:00,45.7,21.0,30.30,SW,226,2.0,3.0,38,0.00,,,0.00,weatherlink.com 1.10,2013-04-04 15:34:00,
2013-04-04 11:49:00,46.9,21.0,30.29,SSW,212,3.0,4.0,36,0.00,,,0.00,weatherlink.com 1.10,2013-04-04 15:49:00,
2013-04-04 12:04:00,47.0,19.0,30.29,ENE,75,1.0,7.0,33,0.00,,,0.00,weatherlink.com 1.10,2013-04-04 16:04:00,
2013-04-04 12:19:00,47.3,19.0,30.27,SW,222,2.0,5.0,32,0.00,,,0.00,weatherlink.com 1.10,2013-04-04 16:19:00,
2013-04-04 12:34:00,48.2,20.0,30.26,SW,232,0.0,5.0,33,0.00,,,0.00,weatherlink.com 1.10,2013-04-04 16:34:00,
2013-04-04 12:49:00,49.5,20.0,30.25,SE,141,0.0,5.0,31,0.00,,,0.00,weatherlink.com 1.10,2013-04-04 16:49:00,
2013-04-04 13:04:00,50.3,20.0,30.24,WNW,285,1.0,5.0,30,0.00,,,0.00,weatherlink.com 1.10,2013-04-04 17:04:00,
2013-04-04 13:19:00,49.7,20.0,30.24,SSW,207,0.0,7.0,31,0.00,,,0.00,weatherlink.com 1.10,2013-04-04 17:19:00,
2013-04-04 13:34:00,50.3,20.0,30.22,South,187,1.0,5.0,30,0.00,,,0.00,weatherlink.com 1.10,2013-04-04 17:34:00,
2013-04-04 13:49:00,51.0,21.0,30.21,SW,222,2.0,4.0,31,0.00,,,0.00,weatherlink.com 1.10,2013-04-04 17:49:00,
2013-04-04 14:05:00,51.6,20.0,30.20,ESE,105,3.0,4.0,29,0.00,,,0.00,weatherlink.com 1.10,2013-04-04 18:05:00,
2013-04-04 14:20:00,52.1,20.0,30.19,West,273,1.0,7.0,28,0.00,,,0.00,weatherlink.com 1.10,2013-04-04 18:20:00,
2013-04-04 14:35:00,52.8,22.0,30.17,East,87,3.0,4.0,30,0.00,,,0.00,weatherlink.com 1.10,2013-04-04 18:35:00,
2013-04-04 14:50:00,54.2,22.0,30.16,WSW,244,0.0,6.0,28,0.00,,,0.00,weatherlink.com 1.10,2013-04-04 18:50:00,
2013-04-04 15:05:00,55.0,20.0,30.14,WSW,240,1.0,6.0,26,0.00,,,0.00,weatherlink.com 1.10,2013-04-04 19:05:00,
2013-04-04 15:20:00,56.1,21.0,30.13,SSE,147,2.0,8.0,25,0.00,,,0.00,weatherlink.com 1.10,2013-04-04 19:20:00,
2013-04-04 15:35:00,56.2,21.0,30.12,SE,133,1.0,6.0,25,0.00,,,0.00,weatherlink.com 1.10,2013-04-04 19:35:00,
2013-04-04 15:50:00,56.6,20.0,30.12,East,82,2.0,9.0,24,0.00,,,0.00,weatherlink.com 1.10,2013-04-04 19:50:00,
2013-04-04 16:04:00,55.9,20.0,30.11,SSE,150,0.0,9.0,25,0.00,,,0.00,weatherlink.com 1.10,2013-04-04 20:04:00,
2013-04-04 16:19:00,56.1,21.0,30.10,ESE,104,0.0,7.0,25,0.00,,,0.00,weatherlink.com 1.10,2013-04-04 20:19:00,
2013-04-04 16:34:00,56.5,22.0,30.09,West,264,0.0,6.0,26,0.00,,,0.00,weatherlink.com 1.10,2013-04-04 20:34:00,
2013-04-04 16:49:00,56.1,21.0,30.09,WNW,302,2.0,5.0,25,0.00,,,0.00,weatherlink.com 1.10,2013-04-04 20:49:00,
2013-04-04 17:04:00,56.1,21.0,30.08,ESE,110,1.0,5.0,26,0.00,,,0.00,weatherlink.com 1.10,2013-04-04 21:04:00,
2013-04-04 17:34:00,55.2,22.0,30.07,WNW,283,2.0,4.0,27,0.00,,,0.00,weatherlink.com 1.10,2013-04-04 21:34:00,
2013-04-04 17:50:00,54.7,22.0,30.07,SW,214,1.0,6.0,28,0.00,,,0.00,weatherlink.com 1.10,2013-04-04 21:50:00,
2013-04-04 18:05:00,54.4,22.0,30.06,SW,215,1.0,5.0,28,0.00,,,0.00,weatherlink.com 1.10,2013-04-04 22:05:00,
2013-04-04 18:20:00,53.8,21.0,30.07,WNW,292,0.0,3.0,28,0.00,,,0.00,weatherlink.com 1.10,2013-04-04 22:20:00,
2013-04-04 18:35:00,53.4,22.0,30.07,SSW,211,0.0,3.0,29,0.00,,,0.00,weatherlink.com 1.10,2013-04-04 22:35:00,
2013-04-04 18:50:00,52.9,20.0,30.07,ESE,110,2.0,7.0,28,0.00,,,0.00,weatherlink.com 1.10,2013-04-04 22:50:00,
2013-04-04 19:05:00,52.2,20.0,30.07,WSW,242,0.0,6.0,28,0.00,,,0.00,weatherlink.com 1.10,2013-04-04 23:05:00,
2013-04-04 19:20:00,51.5,21.0,30.07,SW,221,0.0,4.0,30,0.00,,,0.00,weatherlink.com 1.10,2013-04-04 23:20:00,
2013-04-04 19:35:00,50.6,20.0,30.06,SW,214,0.0,1.0,30,0.00,,,0.00,weatherlink.com 1.10,2013-04-04 23:35:00,
2013-04-04 19:50:00,50.2,20.0,30.07,SW,219,2.0,4.0,31,0.00,,,0.00,weatherlink.com 1.10,2013-04-04 23:50:00,
2013-04-04 20:05:00,50.0,20.0,30.07,SW,235,0.0,5.0,31,0.00,,,0.00,weatherlink.com 1.10,2013-04-05 00:05:00,
2013-04-04 20:20:00,49.5,21.0,30.07,SSW,212,0.0,4.0,32,0.00,,,0.00,weatherlink.com 1.10,2013-04-05 00:20:00,
2013-04-04 20:50:00,49.1,21.0,30.06,SW,224,0.0,3.0,33,0.00,,,0.00,weatherlink.com 1.10,2013-04-05 00:50:00,
2013-04-04 21:05:00,48.4,21.0,30.06,SSW,205,0.0,2.0,34,0.00,,,0.00,weatherlink.com 1.10,2013-04-05 01:05:00,
2013-04-04 21:20:00,47.5,22.0,30.06,East,97,0.0,1.0,37,0.00,,,0.00,weatherlink.com 1.10,2013-04-05 01:20:00,
2013-04-04 21:35:00,46.5,23.0,30.06,SSE,150,0.0,3.0,40,0.00,,,0.00,weatherlink.com 1.10,2013-04-05 01:35:00,
2013-04-04 21:50:00,45.7,22.0,30.05,East,91,0.0,1.0,39,0.00,,,0.00,weatherlink.com 1.10,2013-04-05 01:50:00,
2013-04-04 22:05:00,45.3,24.0,30.05,WSW,250,0.0,5.0,44,0.00,,,0.00,weatherlink.com 1.10,2013-04-05 02:05:00,
2013-04-04 22:20:00,44.7,26.0,30.04,WNW,300,0.0,2.0,48,0.00,,,0.00,weatherlink.com 1.10,2013-04-05 02:20:00,
2013-04-04 22:35:00,43.7,27.0,30.04,SW,229,0.0,1.0,52,0.00,,,0.00,weatherlink.com 1.10,2013-04-05 02:35:00,
2013-04-04 22:50:00,43.5,26.0,30.04,SSW,210,0.0,2.0,50,0.00,,,0.00,weatherlink.com 1.10,2013-04-05 02:50:00,
2013-04-04 23:05:00,43.9,27.0,30.04,South,186,0.0,2.0,51,0.00,,,0.00,weatherlink.com 1.10,2013-04-05 03:05:00,
2013-04-04 23:20:00,43.3,27.0,30.04,SW,222,0.0,3.0,52,0.00,,,0.00,weatherlink.com 1.10,2013-04-05 03:20:00,
2013-04-04 23:35:00,43.2,26.0,30.03,SW,228,0.0,5.0,52,0.00,,,0.00,weatherlink.com 1.10,2013-04-05 03:35:00,
2013-04-04 23:50:00,43.4,26.0,30.02,South,191,1.0,3.0,51,0.00,,,0.00,weatherlink.com 1.10,2013-04-05 03:50:00,